Weather History for KAUH - March, 2014

Change the Weather History Date:

Sunday, March 2, 2014

  Actual Average Record
Temperature  
Mean Temperature 0 °F -  
Max Temperature 5 °F 49 °F 78 °F (1992)
Min Temperature -5 °F 24 °F -5 °F (1980)
Degree Days  
Heating Degree Days 65    
Moisture  
Dew Point -12 °F    
Average Humidity 58    
Maximum Humidity 70    
Minimum Humidity 47    
Precipitation  
Precipitation 0.00 in - - ()
Sea Level Pressure  
Sea Level Pressure 30.49 in    
Wind  
Wind Speed 15 mph (NNE)    
Max Wind Speed 20 mph    
Max Gust Speed 24 mph    
Visibility 10 miles    
Events      
Averages and records for this station are not official NWS values.
T = Trace of Precipitation, MM = Missing Value Source: NWS Daily Summary

Daily Weather History Graph

Daily Weather History Graph

Search for Another Location

Airport or City:

Trip Planner

Search our weather history database for the weather conditions in past years. The results will help you decide how hot, cold, wet, or windy it might be!

Date:

Astronomy

Mar. 02, 2014 Rise Set
Actual Time 7:04 AM CST 6:24 PM CST
Civil Twilight 6:36 AM CST 6:51 PM CST
Nautical Twilight 6:05 AM CST 7:23 PM CST
Astronomical Twilight 5:33 AM CST 7:55 PM CST
Moon 7:35 AM CST (3/2) 8:23 PM CST (3/2)
Length of Visible Light 12h 14m
Length of Day
11h 19m
Waxing Crescent, 3% of the Moon is Illuminated
Mar 2
Waxing Crescent
Mar 8
First Quarter
Mar 16
Full
Mar 23
Last Quarter
Mar 30
New

Hourly Weather History & Observations

Time (CST) Temp. Windchill Dew Point Humidity Pressure Visibility Wind Dir Wind Speed Gust Speed Precip Events Conditions
12:15 AM -0.2 °F -20.9 °F -8.7 °F 67% 30.45 in 10.0 mi North 17.3 mph 23.0 mph N/A   Overcast
12:35 AM -0.2 °F -20.9 °F -8.3 °F 69% 30.45 in 10.0 mi NNE 17.3 mph 21.9 mph N/A   Overcast
12:55 AM -0.2 °F -20.3 °F -8.1 °F 69% 30.44 in 10.0 mi North 16.1 mph - N/A   Overcast
1:15 AM -0.4 °F -22.3 °F -8.5 °F 69% 30.45 in 10.0 mi North 19.6 mph - N/A   Overcast
1:35 AM -0.4 °F -19.9 °F -8.3 °F 69% 30.47 in 10.0 mi North 15.0 mph - N/A   Overcast
1:55 AM -0.8 °F -22.2 °F -9.4 °F 67% 30.47 in 10.0 mi North 18.4 mph - N/A   Overcast
2:20 AM -0.8 °F -21.6 °F -8.5 °F 70% 30.46 in 10.0 mi North 17.3 mph - N/A   Overcast
2:35 AM -1.3 °F -22.3 °F -10.1 °F 66% 30.46 in 10.0 mi North 17.3 mph - N/A   Overcast
2:55 AM -1.5 °F -21.9 °F -10.1 °F 67% 30.46 in 10.0 mi North 16.1 mph - N/A   Overcast
3:15 AM -2.2 °F -23.5 °F -11.4 °F 65% 30.47 in 10.0 mi North 17.3 mph - N/A   Overcast
3:35 AM -2.4 °F -23.7 °F -11.6 °F 65% 30.48 in 10.0 mi North 17.3 mph - N/A   Overcast
3:55 AM -3.1 °F -25.3 °F -11.9 °F 66% 30.47 in 10.0 mi North 18.4 mph 21.9 mph N/A   Overcast
4:15 AM -4.0 °F -26.4 °F -13.0 °F 65% 30.48 in 10.0 mi North 18.4 mph 24.2 mph N/A   Overcast
4:35 AM -4.4 °F -27.5 °F -13.5 °F 65% 30.48 in 10.0 mi North 19.6 mph 24.2 mph N/A   Overcast
4:55 AM -4.9 °F -28.2 °F -13.9 °F 65% 30.49 in 10.0 mi North 19.6 mph 24.2 mph N/A   Scattered Clouds
5:15 AM -5.1 °F -26.6 °F -15.2 °F 62% 30.50 in 10.0 mi North 16.1 mph - N/A   Clear
5:35 AM -4.9 °F -27.6 °F -14.8 °F 62% 30.49 in 10.0 mi North 18.4 mph 21.9 mph N/A   Clear
5:55 AM -5.3 °F -27.5 °F -14.8 °F 63% 30.49 in 10.0 mi North 17.3 mph 23.0 mph N/A   Clear
6:15 AM -5.1 °F -25.1 °F -14.4 °F 64% 30.49 in 10.0 mi North 13.8 mph - N/A   Clear
6:35 AM -5.1 °F -25.1 °F -14.3 °F 65% 30.49 in 10.0 mi North 13.8 mph - N/A   Clear
7:00 AM -4.9 °F -26.3 °F -14.6 °F 63% 30.49 in 10.0 mi North 16.1 mph - N/A   Clear
7:15 AM -4.9 °F -27.0 °F -14.4 °F 64% 30.49 in 10.0 mi North 17.3 mph - N/A   Clear
7:35 AM -4.9 °F -27.0 °F -14.8 °F 62% 30.50 in 10.0 mi NNE 17.3 mph - N/A   Clear
7:55 AM -4.5 °F -24.4 °F -14.8 °F 61% 30.51 in 10.0 mi North 13.8 mph 18.4 mph N/A   Mostly Cloudy
8:15 AM -4.2 °F -24.7 °F -14.8 °F 60% 30.53 in 10.0 mi NNE 15.0 mph - N/A   Overcast
8:35 AM -4.0 °F -23.0 °F -14.4 °F 61% 30.54 in 10.0 mi North 12.7 mph - N/A   Overcast
8:55 AM -3.5 °F -22.3 °F -15.0 °F 58% 30.55 in 10.0 mi NNE 12.7 mph - N/A   Overcast
9:15 AM -4.0 °F -23.7 °F -15.3 °F 58% 30.53 in 10.0 mi North 13.8 mph - N/A   Overcast
9:35 AM -3.6 °F -24.7 °F -15.2 °F 58% 30.53 in 10.0 mi North 16.1 mph - N/A   Overcast
9:55 AM -2.9 °F -21.6 °F -14.4 °F 58% 30.53 in 10.0 mi North 12.7 mph - N/A   Overcast
10:15 AM -2.4 °F -22.4 °F -14.3 °F 57% 30.53 in 10.0 mi NNE 15.0 mph 19.6 mph N/A   Overcast
10:35 AM -2.2 °F -19.9 °F -13.7 °F 58% 30.53 in 10.0 mi North 11.5 mph 19.6 mph N/A   Overcast
10:55 AM -1.5 °F -20.5 °F -14.4 °F 54% 30.54 in 10.0 mi North 13.8 mph 18.4 mph N/A   Overcast
11:15 AM -0.8 °F -19.6 °F -13.7 °F 54% 30.53 in 10.0 mi North 13.8 mph - N/A   Overcast
11:40 AM -0.2 °F -19.6 °F -13.7 °F 53% 30.51 in 10.0 mi North 15.0 mph 18.4 mph N/A   Overcast
11:55 AM 1.0 °F -17.3 °F -12.8 °F 52% 30.53 in 10.0 mi North 13.8 mph - N/A   Overcast
12:15 PM 0.7 °F -17.0 °F -14.3 °F 50% 30.55 in 10.0 mi North 12.7 mph 16.1 mph N/A   Overcast
12:35 PM 1.4 °F -11.3 °F -13.2 °F 51% 30.54 in 10.0 mi NNW 6.9 mph - N/A   Mostly Cloudy
12:55 PM 3.6 °F -12.6 °F -11.4 °F 50% 30.51 in 10.0 mi North 11.5 mph 19.6 mph N/A   Scattered Clouds
1:15 PM 3.9 °F -14.3 °F -10.8 °F 51% 30.49 in 10.0 mi North 15.0 mph 20.7 mph N/A   Clear
1:35 PM 5.0 °F -12.3 °F -9.9 °F 50% 30.49 in 10.0 mi North 13.8 mph 21.9 mph N/A   Clear
1:55 PM 5.2 °F -11.4 °F -11.0 °F 47% 30.49 in 10.0 mi North 12.7 mph 17.3 mph N/A   Clear
2:15 PM 5.5 °F -8.4 °F -10.8 °F 47% 30.47 in 10.0 mi NNE 9.2 mph - N/A   Clear
2:35 PM 5.2 °F -12.7 °F -11.4 °F 47% 30.47 in 10.0 mi North 15.0 mph - N/A   Clear
2:55 PM 5.2 °F -12.7 °F -10.8 °F 48% 30.47 in 10.0 mi NNE 15.0 mph 19.6 mph N/A   Clear
3:15 PM 5.4 °F -11.1 °F -10.5 °F 48% 30.47 in 10.0 mi North 12.7 mph 19.6 mph N/A   Clear
3:35 PM 5.2 °F -10.6 °F -10.5 °F 49% 30.46 in 10.0 mi North 11.5 mph 18.4 mph N/A   Clear
3:55 PM 5.4 °F -12.5 °F -10.5 °F 48% 30.46 in 10.0 mi NNE 15.0 mph - N/A   Clear
4:15 PM 5.0 °F -12.3 °F -11.0 °F 48% 30.45 in 10.0 mi NNE 13.8 mph 19.6 mph N/A   Clear
4:35 PM 4.5 °F -12.3 °F -11.2 °F 48% 30.45 in 10.0 mi North 12.7 mph - N/A   Clear
4:55 PM 4.1 °F -12.7 °F -11.0 °F 50% 30.46 in 10.0 mi NNE 12.7 mph 18.4 mph N/A   Clear
5:15 PM 3.9 °F -14.3 °F -10.7 °F 51% 30.46 in 10.0 mi NNE 15.0 mph 19.6 mph N/A   Clear
5:35 PM 3.6 °F -14.8 °F -11.2 °F 50% 30.45 in 10.0 mi NNE 15.0 mph - N/A   Clear
5:55 PM 3.0 °F -14.8 °F -11.2 °F 52% 30.46 in 10.0 mi NNE 13.8 mph - N/A   Clear
6:15 PM 2.7 °F -15.3 °F -11.6 °F 52% 30.46 in 10.0 mi NNE 13.8 mph - N/A   Clear
6:35 PM 2.3 °F -15.0 °F -11.7 °F 52% 30.46 in 10.0 mi NNE 12.7 mph - N/A   Clear
6:55 PM 2.3 °F -13.4 °F -12.5 °F 50% 30.47 in 10.0 mi NNE 10.4 mph - N/A   Clear
7:15 PM 2.1 °F -13.6 °F -12.8 °F 50% 30.47 in 10.0 mi NNE 10.4 mph - N/A   Clear
7:35 PM 1.9 °F -13.8 °F -12.3 °F 52% 30.48 in 10.0 mi NNE 10.4 mph - N/A   Clear
7:55 PM 1.4 °F -13.5 °F -12.5 °F 52% 30.48 in 10.0 mi NNE 9.2 mph - N/A   Clear
8:15 PM 1.4 °F -13.5 °F -12.1 °F 53% 30.48 in 10.0 mi NE 9.2 mph - N/A   Clear
8:35 PM 1.0 °F -11.7 °F -12.1 °F 54% 30.47 in 10.0 mi NNE 6.9 mph - N/A   Clear
8:55 PM 0.5 °F -12.3 °F -11.9 °F 56% 30.48 in 10.0 mi NE 6.9 mph - N/A   Clear
9:15 PM -0.6 °F -10.6 °F -11.9 °F 59% 30.49 in 10.0 mi NE 4.6 mph - N/A   Clear
9:35 PM -1.7 °F -11.8 °F -12.3 °F 61% 30.50 in 10.0 mi NE 4.6 mph - N/A   Clear
9:55 PM -2.4 °F -12.7 °F -12.5 °F 62% 30.51 in 10.0 mi NE 4.6 mph - N/A   Clear
10:15 PM -2.6 °F -12.9 °F -11.9 °F 64% 30.52 in 10.0 mi NNE 4.6 mph - N/A   Clear
10:35 PM -2.7 °F - -11.7 °F 65% 30.53 in 10.0 mi Calm Calm - N/A   Clear
10:55 PM -2.7 °F -11.0 °F -12.1 °F 64% 30.53 in 10.0 mi North 3.5 mph - N/A   Clear
11:15 PM -5.3 °F -13.8 °F -13.9 °F 66% 30.53 in 10.0 mi North 3.5 mph - N/A   Clear
11:35 PM -4.0 °F -14.6 °F -13.0 °F 65% 30.53 in 10.0 mi North 4.6 mph - N/A   Clear
11:55 PM -3.5 °F - -13.0 °F 64% 30.51 in 10.0 mi Calm Calm - N/A   Clear